| time (UTC) | temp F | wind direction | speed MPH | gust MPH | rain 1hr in | rain 24hr in | rain mn in | humidity % | barometer mb |
| 20260502190500 | 65 | 45 | 4.0 | 8.0 | 0.00 | 0.00 | 0.00 | 87 | 1019.0 |
| 20260502185436 | 65 | 68 | 8.0 | 13.0 | 0.00 | 0.00 | 0.00 | 87 | 1018.8 |
| 20260502184433 | 66 | 68 | 3.0 | 6.0 | 0.00 | 0.00 | 0.00 | 86 | 1018.8 |
| 20260502183510 | 65 | 75 | 8.0 | 13.0 | 0.00 | 0.00 | 0.00 | 86 | 1019.1 |
| 20260502181423 | 66 | 84 | 6.0 | 11.0 | 0.00 | 0.00 | 0.00 | 86 | 1019.4 |
| 20260502180421 | 65 | 76 | 6.0 | 11.0 | 0.00 | 0.00 | 0.00 | 86 | 1019.6 |
| 20260502170502 | 66 | 68 | 4.0 | 7.0 | 0.00 | 0.00 | 0.00 | 85 | 1019.9 |
| 20260502163452 | 67 | 68 | 6.0 | 9.0 | 0.00 | 0.00 | 0.00 | 83 | 1019.9 |
| 20260502162449 | 67 | 68 | 10.0 | 13.0 | 0.00 | 0.00 | 0.00 | 83 | 1019.8 |
| 20260502161446 | 67 | 85 | 6.0 | 9.0 | 0.00 | 0.00 | 0.00 | 83 | 1019.8 |
| 20260502160443 | 68 | 113 | 4.0 | 7.0 | 0.00 | 0.00 | 0.00 | 81 | 1019.9 |
| 20260502151426 | 68 | 105 | 11.0 | 14.0 | 0.00 | 0.00 | 0.00 | 79 | 1020.3 |
| 20260502150502 | 68 | 79 | 6.0 | 11.0 | 0.00 | 0.00 | 0.00 | 79 | 1020.1 |
| 20260502130445 | 68 | 113 | 8.0 | 14.0 | 0.00 | 0.00 | 0.00 | 83 | 1021.5 |
| 20260502123435 | 68 | 113 | 6.0 | 15.0 | 0.00 | 0.00 | 0.00 | 83 | 1021.6 |
| 20260502122431 | 67 | 120 | 10.0 | 15.0 | 0.00 | 0.00 | 0.00 | 83 | 1021.9 |
| 20260502121428 | 67 | 107 | 7.0 | 11.0 | 0.00 | 0.00 | 0.00 | 82 | 1022.3 |
| 20260502120425 | 68 | 135 | 10.0 | 11.0 | 0.00 | 0.00 | 0.00 | 81 | 1022.2 |
| 20260502115421 | 68 | 28 | 8.0 | 13.0 | 0.00 | 0.00 | 0.00 | 81 | 1022.2 |
| 20260502113415 | 68 | 131 | 6.0 | 11.0 | 0.00 | 0.00 | 0.00 | 82 | 1022.3 |
| 20260502112512 | 68 | 130 | 8.0 | 11.0 | 0.00 | 0.00 | 0.00 | 81 | 1022.3 |
| 20260502111510 | 69 | 90 | 7.0 | 11.0 | 0.00 | 0.00 | 0.00 | 81 | 1022.3 |
| 20260502110505 | 68 | 113 | 6.0 | 11.0 | 0.00 | 0.01 | 0.00 | 81 | 1022.5 |
| 20260502105502 | 68 | 90 | 8.0 | 11.0 | 0.00 | 0.02 | 0.00 | 82 | 1022.7 |
| 20260502104459 | 68 | 77 | 7.0 | 9.0 | 0.00 | 0.07 | 0.00 | 81 | 1022.7 |
| 20260502103517 | 68 | 68 | 8.0 | 11.0 | 0.00 | 0.12 | 0.00 | 80 | 1022.7 |
| 20260502102452 | 68 | 68 | 8.0 | 13.0 | 0.00 | 0.13 | 0.00 | 78 | 1022.7 |
| 20260502101449 | 70 | 87 | 2.0 | 4.0 | 0.00 | 0.15 | 0.00 | 77 | 1022.8 |
| 20260502100505 | 69 | 53 | 4.0 | 7.0 | 0.00 | 0.15 | 0.00 | 77 | 1022.7 |
| 20260502091511 | 69 | 78 | 3.0 | 6.0 | 0.00 | 0.15 | 0.00 | 80 | 1023.1 |
| 20260502090427 | 68 | 45 | 3.0 | 6.0 | 0.00 | 0.15 | 0.00 | 81 | 1023.1 |
| 20260502071451 | 66 | 23 | 1.0 | 2.0 | 0.00 | 0.15 | 0.00 | 86 | 1023.2 |
| 20260502070448 | 65 | 23 | 2.0 | 4.0 | 0.00 | 0.15 | 0.00 | 87 | 1023.1 |
| 20260502065444 | 65 | 23 | 0.0 | 2.0 | 0.00 | 0.15 | 0.00 | 88 | 1023.0 |
| 20260502064441 | 65 | 33 | 1.0 | 4.0 | 0.00 | 0.15 | 0.00 | 89 | 1023.1 |
| 20260502063438 | 64 | 23 | 2.0 | 4.0 | 0.00 | 0.15 | 0.00 | 89 | 1023.3 |
| 20260502062435 | 64 | 45 | 2.0 | 2.0 | 0.00 | 0.15 | 0.00 | 89 | 1023.4 |
| 20260502061431 | 64 | 23 | 1.0 | 2.0 | 0.00 | 0.15 | 0.00 | 89 | 1023.3 |
| 20260502060428 | 64 | 39 | 2.0 | 4.0 | 0.00 | 0.15 | 0.00 | 90 | 1023.1 |
| 20260502055427 | 64 | 45 | 0.0 | 2.0 | 0.00 | 0.15 | 0.00 | 90 | 1023.0 |
| 20260502054422 | 64 | 45 | 1.0 | 2.0 | 0.00 | 0.15 | 0.00 | 91 | 1023.0 |
| 20260502053418 | 64 | 35 | 1.0 | 2.0 | 0.00 | 0.15 | 0.00 | 91 | 1022.9 |
| 20260502052437 | 64 | 23 | 0.0 | 2.0 | 0.00 | 0.15 | 0.00 | 91 | 1022.9 |
| 20260502051512 | 64 | 45 | 1.0 | 2.0 | 0.00 | 0.15 | 0.00 | 92 | 1022.6 |
| 20260502050509 | 64 | 45 | 1.0 | 2.0 | 0.00 | 0.15 | 0.00 | 92 | 1022.9 |
| 20260502045507 | 64 | 45 | 1.0 | 2.0 | 0.00 | 0.17 | 0.00 | 92 | 1022.8 |
| 20260502044504 | 64 | 0.0 | 2.0 | 0.00 | 0.17 | 0.00 | 92 | 1022.9 | |
| 20260502043500 | 64 | 45 | 0.0 | 2.0 | 0.00 | 0.17 | 0.00 | 92 | 1022.9 |
| 20260502042456 | 64 | 45 | 1.0 | 2.0 | 0.00 | 0.17 | 0.00 | 92 | 1022.9 |
| 20260502041534 | 64 | 23 | 1.0 | 2.0 | 0.00 | 0.17 | 0.00 | 92 | 1022.9 |
| 20260502040451 | 64 | 23 | 1.0 | 2.0 | 0.00 | 0.17 | 0.00 | 92 | 1023.0 |
| 20260502035447 | 64 | 23 | 1.0 | 2.0 | 0.00 | 0.17 | 0.00 | 92 | 1023.0 |
| 20260502034443 | 64 | 23 | 1.0 | 2.0 | 0.00 | 0.17 | 0.00 | 92 | 1023.2 |
| 20260502033440 | 64 | 23 | 0.0 | 2.0 | 0.00 | 0.17 | 0.00 | 92 | 1023.2 |
| 20260502032437 | 64 | 23 | 0.0 | 2.0 | 0.00 | 0.17 | 0.00 | 92 | 1023.3 |
| 20260502031433 | 64 | 23 | 1.0 | 2.0 | 0.00 | 0.17 | 0.00 | 92 | 1023.2 |
| 20260502030430 | 64 | 23 | 0.0 | 2.0 | 0.00 | 0.17 | 0.00 | 92 | 1023.2 |
| 20260502025447 | 64 | 45 | 1.0 | 4.0 | 0.00 | 0.17 | 0.00 | 91 | 1023.1 |
| 20260502024424 | 65 | 23 | 0.0 | 2.0 | 0.00 | 0.17 | 0.00 | 91 | 1023.1 |
| 20260502023420 | 65 | 68 | 1.0 | 4.0 | 0.00 | 0.17 | 0.00 | 91 | 1023.0 |
| 20260502022418 | 65 | 57 | 1.0 | 4.0 | 0.00 | 0.17 | 0.00 | 91 | 1023.2 |
| 20260502021514 | 65 | 45 | 2.0 | 4.0 | 0.00 | 0.17 | 0.00 | 91 | 1023.1 |
| 20260502020511 | 65 | 0.0 | 2.0 | 0.00 | 0.17 | 0.00 | 91 | 1023.4 | |
| 20260502015507 | 65 | 45 | 2.0 | 4.0 | 0.00 | 0.17 | 0.00 | 91 | 1023.4 |
| 20260502014504 | 65 | 70 | 2.0 | 7.0 | 0.00 | 0.17 | 0.00 | 91 | 1023.3 |
| 20260502013501 | 65 | 45 | 2.0 | 2.0 | 0.00 | 0.17 | 0.00 | 90 | 1023.4 |
| 20260502012458 | 65 | 53 | 1.0 | 4.0 | 0.00 | 0.17 | 0.00 | 90 | 1023.4 |
| 20260502011455 | 65 | 68 | 2.0 | 4.0 | 0.00 | 0.17 | 0.00 | 90 | 1023.5 |
| 20260502010451 | 65 | 68 | 3.0 | 6.0 | 0.00 | 0.17 | 0.00 | 90 | 1023.7 |
| 20260502005449 | 65 | 45 | 2.0 | 4.0 | 0.00 | 0.17 | 0.00 | 90 | 1023.8 |
| 20260502004507 | 65 | 79 | 5.0 | 7.0 | 0.00 | 0.17 | 0.00 | 90 | 1023.8 |
| 20260502003442 | 65 | 81 | 2.0 | 4.0 | 0.00 | 0.17 | 0.00 | 90 | 1023.9 |
| 20260502002439 | 65 | 56 | 3.0 | 9.0 | 0.00 | 0.17 | 0.00 | 90 | 1023.9 |
| 20260502001435 | 65 | 45 | 1.0 | 2.0 | 0.00 | 0.17 | 0.00 | 90 | 1024.1 |
| 20260502000432 | 65 | 68 | 2.0 | 4.0 | 0.00 | 0.17 | 0.00 | 90 | 1024.3 |
| 20260501235429 | 65 | 113 | 1.0 | 2.0 | 0.00 | 0.17 | 0.00 | 90 | 1024.3 |
| 20260501234446 | 65 | 68 | 4.0 | 6.0 | 0.00 | 0.17 | 0.00 | 90 | 1024.4 |
| 20260501233422 | 65 | 68 | 4.0 | 6.0 | 0.00 | 0.17 | 0.00 | 90 | 1024.6 |
| 20260501232419 | 65 | 52 | 2.0 | 4.0 | 0.00 | 0.17 | 0.00 | 90 | 1024.7 |
| 20260501231416 | 65 | 100 | 1.0 | 4.0 | 0.00 | 0.17 | 0.00 | 90 | 1024.8 |
| 20260501230513 | 65 | 80 | 1.0 | 4.0 | 0.00 | 0.17 | 0.00 | 90 | 1024.7 |
| 20260501225510 | 65 | 58 | 3.0 | 6.0 | 0.00 | 0.17 | 0.00 | 90 | 1024.6 |
| 20260501224506 | 65 | 60 | 2.0 | 4.0 | 0.00 | 0.17 | 0.00 | 90 | 1024.6 |
| 20260501223503 | 65 | 37 | 1.0 | 4.0 | 0.00 | 0.17 | 0.00 | 90 | 1024.6 |
| 20260501222501 | 65 | 52 | 2.0 | 2.0 | 0.00 | 0.17 | 0.00 | 90 | 1024.6 |
| 20260501221457 | 65 | 54 | 3.0 | 4.0 | 0.00 | 0.17 | 0.00 | 90 | 1024.6 |
| 20260501220453 | 65 | 23 | 2.0 | 4.0 | 0.00 | 0.17 | 0.00 | 89 | 1024.7 |
| 20260501215450 | 65 | 59 | 1.0 | 4.0 | 0.00 | 0.17 | 0.17 | 89 | 1024.9 |
| 20260501214509 | 65 | 68 | 2.0 | 4.0 | 0.00 | 0.17 | 0.17 | 89 | 1024.9 |
| 20260501213443 | 65 | 0.0 | 2.0 | 0.00 | 0.17 | 0.17 | 89 | 1024.9 | |
| 20260501212441 | 65 | 52 | 4.0 | 7.0 | 0.00 | 0.17 | 0.17 | 89 | 1024.9 |
| 20260501211437 | 65 | 68 | 2.0 | 4.0 | 0.00 | 0.17 | 0.17 | 89 | 1025.0 |
| 20260501210434 | 65 | 23 | 2.0 | 4.0 | 0.00 | 0.17 | 0.17 | 89 | 1025.1 |
| 20260501205431 | 65 | 68 | 2.0 | 4.0 | 0.00 | 0.17 | 0.17 | 88 | 1025.1 |
| 20260501204427 | 65 | 68 | 2.0 | 4.0 | 0.00 | 0.17 | 0.17 | 89 | 1025.1 |
| 20260501203506 | 65 | 68 | 3.0 | 6.0 | 0.00 | 0.17 | 0.17 | 88 | 1025.0 |
| 20260501202421 | 65 | 68 | 3.0 | 4.0 | 0.00 | 0.17 | 0.17 | 88 | 1025.0 |
| 20260501201417 | 65 | 74 | 4.0 | 7.0 | 0.00 | 0.17 | 0.17 | 88 | 1024.9 |
| 20260501200514 | 65 | 23 | 2.0 | 2.0 | 0.00 | 0.17 | 0.17 | 88 | 1024.8 |
| 20260501195512 | 65 | 23 | 1.0 | 2.0 | 0.00 | 0.17 | 0.17 | 87 | 1024.5 |
| 20260501194528 | 65 | 31 | 3.0 | 6.0 | 0.00 | 0.17 | 0.17 | 87 | 1024.3 |
| 20260501193505 | 65 | 24 | 3.0 | 7.0 | 0.00 | 0.17 | 0.17 | 87 | 1024.2 |
| 20260501192543 | 65 | 66 | 3.0 | 8.0 | 0.00 | 0.17 | 0.17 | 87 | 1024.0 |
| 20260501191458 | 65 | 28 | 3.0 | 8.0 | 0.00 | 0.17 | 0.17 | 87 | 1023.9 |